Blair, NE

6:16 PM CDT on July 20, 2017 (GMT -0500)
Blair Municipal

Weather History for KBTA - June, 2012

Change the Weather History Date:

Friday, June 29, 2012

  Actual Average (KOMA) Record (KOMA)
Temperature  
Mean Temperature 82 °F -  
Max Temperature 91 °F 88 °F 101 °F (1911)
Min Temperature 74 °F 65 °F 51 °F (1923)
Cooling Degree Days 16    
Growing Degree Days 32 (Base 50)    
Moisture  
Dew Point 70 °F    
Average Humidity 71    
Maximum Humidity 92    
Minimum Humidity 32    
Precipitation  
Precipitation 0.04 in - - ()
Sea Level Pressure  
Sea Level Pressure 29.85 in    
Wind  
Wind Speed 7 mph (NE)    
Max Wind Speed 17 mph    
Max Gust Speed 24 mph    
Visibility 9 miles    
Events Rain , Thunderstorm    
Averages and records for this station are not official NWS values.
T = Trace of Precipitation, MM = Missing Value Source: NWS Daily Summary

Daily Weather History Graph

Daily Weather History Graph

Search for Another Location

Airport or City:

Trip Planner

Search our weather history database for the weather conditions in past years. The results will help you decide how hot, cold, wet, or windy it might be!

Date:

Astronomy

Jun. 29, 2012 Rise Set
Actual Time 5:53 AM CDT 9:01 PM CDT
Civil Twilight 5:20 AM CDT 9:35 PM CDT
Nautical Twilight 4:36 AM CDT 10:19 PM CDT
Astronomical Twilight 3:45 AM CDT 11:10 PM CDT
Moon 4:47 PM CDT (6/29) 2:07 AM CDT (6/29)
Length of Visible Light 16h 15m
Length of Day
15h 08m
Waxing Gibbous, 78% of the Moon is Illuminated
Jun 29
Waxing Gibbous
Jul 3
Full
Jul 10
Last Quarter
Jul 18
New
Jul 26
First Quarter

Hourly Weather History & Observations

Time (CDT) Temp. Heat Index Dew Point Humidity Pressure Visibility Wind Dir Wind Speed Gust Speed Precip Events Conditions
12:15 AM 80.1 °F 85.8 °F 76.8 °F 90% 29.88 in 7.0 mi East 6.9 mph - N/A   Clear
12:35 AM 79.9 °F - 76.6 °F 90% 29.88 in 7.0 mi East 6.9 mph - N/A   Clear
12:55 AM 79.7 °F - 76.5 °F 90% 29.88 in 7.0 mi East 6.9 mph - N/A   Clear
1:15 AM 79.5 °F - 76.3 °F 90% 29.89 in 7.0 mi ENE 3.5 mph - N/A   Clear
1:55 AM 78.8 °F - 76.1 °F 91% 29.88 in 7.0 mi Calm Calm - N/A   Clear
2:15 AM 78.8 °F - 76.1 °F 91% 29.87 in 7.0 mi East 5.8 mph - N/A   Clear
2:35 AM 79.0 °F - 76.1 °F 91% 29.87 in 7.0 mi ENE 4.6 mph - N/A   Clear
2:55 AM 78.8 °F - 76.1 °F 91% 29.87 in 7.0 mi East 3.5 mph - N/A   Clear
3:15 AM 78.4 °F - 75.7 °F 91% 29.87 in 5.0 mi Calm Calm - N/A   Clear
3:35 AM 78.4 °F - 76.1 °F 92% 29.88 in 5.0 mi ENE 5.8 mph - N/A Rain Light Rain
3:55 AM 79.2 °F - 74.5 °F 86% 29.86 in 10.0 mi South 6.9 mph - N/A Rain Light Rain
4:15 AM 79.9 °F - 72.3 °F 78% 29.86 in 10.0 mi SSE 5.8 mph - N/A Rain , Thunderstorm Light Thunderstorms and Rain
4:35 AM 80.6 °F 84.4 °F 71.2 °F 73% 29.85 in 10.0 mi West 4.6 mph - N/A Rain , Thunderstorm Thunderstorms and Rain
4:55 AM 85.3 °F 84.6 °F 58.3 °F 40% 29.87 in 10.0 mi West 9.2 mph - 0.01 in Rain , Thunderstorm Light Thunderstorms and Rain
5:15 AM 88.2 °F 86.5 °F 55.9 °F 33% 29.85 in 10.0 mi North 5.8 mph - N/A Rain Light Rain
5:35 AM 87.4 °F 85.5 °F 54.5 °F 32% 29.83 in 10.0 mi WNW 9.2 mph - N/A   Clear
5:55 AM 81.0 °F 82.7 °F 65.1 °F 58% 29.82 in 10.0 mi East 8.1 mph - N/A   Clear
6:15 AM 77.9 °F - 69.8 °F 76% 29.80 in 10.0 mi ESE 11.5 mph - N/A   Clear
6:35 AM 77.5 °F - 70.9 °F 80% 29.81 in 10.0 mi SSE 8.1 mph - N/A   Clear
7:15 AM 78.4 °F - 68.9 °F 72% 29.87 in 10.0 mi West 6.9 mph - N/A   Clear
7:35 AM 78.1 °F - 69.1 °F 74% 29.87 in 10.0 mi West 6.9 mph - N/A   Clear
7:55 AM 78.4 °F - 68.2 °F 71% 29.87 in 10.0 mi West 8.1 mph - N/A   Clear
8:15 AM 79.9 °F - 67.6 °F 66% 29.85 in 10.0 mi WSW 9.2 mph - N/A   Clear
8:35 AM 81.1 °F 83.9 °F 68.0 °F 64% 29.84 in 10.0 mi West 6.9 mph - N/A   Clear
8:55 AM 81.9 °F 85.8 °F 70.2 °F 68% 29.83 in 10.0 mi South 3.5 mph - N/A   Clear
9:15 AM 83.5 °F 88.8 °F 71.8 °F 68% 29.83 in 10.0 mi Calm Calm - N/A   Clear
9:35 AM 83.8 °F 89.5 °F 72.3 °F 68% 29.84 in 10.0 mi North 12.7 mph - N/A   Clear
9:55 AM 81.9 °F 85.4 °F 69.6 °F 66% 29.88 in 10.0 mi North 12.7 mph 18.4 mph N/A   Clear
10:15 AM 82.0 °F 85.7 °F 69.6 °F 66% 29.88 in 10.0 mi North 11.5 mph 19.6 mph N/A   Clear
10:35 AM 80.8 °F 84.2 °F 70.0 °F 70% 29.88 in 10.0 mi NNE 5.8 mph - N/A   Clear
10:55 AM 80.1 °F 83.4 °F 70.5 °F 73% 29.86 in 10.0 mi NE 5.8 mph - N/A   Clear
11:15 AM 79.7 °F - 70.0 °F 72% 29.84 in 10.0 mi ENE 15.0 mph - N/A   Mostly Cloudy
11:35 AM 80.6 °F 83.9 °F 70.0 °F 70% 29.87 in 10.0 mi ENE 6.9 mph - N/A   Scattered Clouds
11:55 AM 79.3 °F - 70.3 °F 74% 29.91 in 10.0 mi WNW 6.9 mph - 0.01 in Rain , Thunderstorm Rain
12:15 PM 78.1 °F - 71.6 °F 80% 29.88 in 10.0 mi North 16.1 mph - N/A Rain Light Rain
12:35 PM 77.0 °F - 70.7 °F 81% 29.94 in 10.0 mi NW 15.0 mph 19.6 mph N/A Rain Light Rain
12:55 PM 76.1 °F - 70.3 °F 82% 29.95 in 10.0 mi NNW 15.0 mph - 0.01 in Rain Light Rain
1:15 PM 75.7 °F - 70.0 °F 82% 29.92 in 10.0 mi North 17.3 mph 24.2 mph N/A Rain Light Rain
1:35 PM 76.6 °F - 68.2 °F 75% 29.88 in 7.0 mi North 10.4 mph - 0.01 in Rain Light Rain
1:55 PM 79.0 °F - 70.2 °F 74% 29.87 in 10.0 mi NE 11.5 mph - 0.01 in Rain Light Rain
2:15 PM 81.0 °F 84.1 °F 68.9 °F 67% 29.85 in 10.0 mi NE 10.4 mph - N/A   Clear
2:35 PM 85.5 °F 88.2 °F 67.1 °F 54% 29.83 in 10.0 mi NE 11.5 mph - N/A   Clear
2:55 PM 86.0 °F 88.5 °F 66.7 °F 52% 29.83 in 10.0 mi ENE 8.1 mph - N/A   Clear
3:15 PM 87.8 °F 91.4 °F 68.0 °F 52% 29.82 in 10.0 mi ESE 10.4 mph - N/A   Clear
3:35 PM 88.7 °F 91.1 °F 66.2 °F 47% 29.83 in 10.0 mi SE 12.7 mph 17.3 mph N/A   Clear
6:15 PM 88.7 °F 95.2 °F 71.8 °F 57% 29.80 in 10.0 mi NNE 6.9 mph - N/A   Clear
6:35 PM 86.9 °F 95.0 °F 73.8 °F 65% 29.80 in 10.0 mi NNE 4.6 mph - N/A   Clear
6:55 PM 85.8 °F 93.4 °F 73.9 °F 67% 29.79 in 10.0 mi North 6.9 mph - N/A   Clear
7:15 PM 85.6 °F 93.8 °F 74.5 °F 69% 29.79 in 10.0 mi NE 3.5 mph - N/A   Clear
7:35 PM 85.5 °F 92.6 °F 73.6 °F 67% 29.80 in 10.0 mi NE 8.1 mph - N/A   Clear
7:55 PM 83.8 °F 91.1 °F 74.5 °F 73% 29.80 in 10.0 mi NE 8.1 mph - N/A   Clear
8:15 PM 82.0 °F 86.7 °F 71.8 °F 71% 29.80 in 5.0 mi NE 12.7 mph 16.1 mph N/A   Haze
8:35 PM 80.8 °F 84.2 °F 70.0 °F 70% 29.81 in 10.0 mi NE 10.4 mph - N/A   Clear
8:55 PM 79.7 °F - 66.2 °F 63% 29.81 in 10.0 mi NE 10.4 mph - N/A   Clear
9:15 PM 78.6 °F - 65.5 °F 64% 29.81 in 10.0 mi NE 9.2 mph - N/A   Clear
9:35 PM 77.7 °F - 65.3 °F 65% 29.81 in 10.0 mi NE 10.4 mph - N/A   Clear
9:55 PM 77.0 °F - 64.8 °F 66% 29.81 in 10.0 mi NE 9.2 mph - N/A   Clear
10:15 PM 76.5 °F - 65.3 °F 68% 29.82 in 10.0 mi ENE 8.1 mph - N/A   Clear
10:35 PM 76.1 °F - 65.5 °F 70% 29.82 in 10.0 mi NE 8.1 mph - N/A   Clear
10:55 PM 76.1 °F - 65.7 °F 70% 29.82 in 10.0 mi ENE 8.1 mph - N/A   Clear
11:35 PM 75.2 °F - 66.2 °F 73% 29.82 in 10.0 mi ENE 6.9 mph - N/A   Clear
11:55 PM 74.5 °F - 66.0 °F 75% 29.81 in 10.0 mi East 8.1 mph - N/A   Clear